Weather History for Russell, KS

Change the Weather History Date:

Saturday, February 8, 2014

  Actual Average Record
Temperature  
Mean Temperature 20 °F -  
Max Temperature 26 °F 39 °F 74 °F (1954)
Min Temperature 14 °F 16 °F -7 °F (1971)
Degree Days  
Heating Degree Days 45    
Moisture  
Dew Point 18 °F    
Average Humidity 90    
Maximum Humidity 96    
Minimum Humidity 80    
Precipitation  
Precipitation 0.00 in - - ()
Sea Level Pressure  
Sea Level Pressure 30.07 in    
Wind  
Wind Speed 11 mph (South)    
Max Wind Speed 15 mph    
Max Gust Speed -    
Visibility 4 miles    
Events      
Averages and records for this station are not official NWS values.
T = Trace of Precipitation, MM = Missing Value Source: NWS Daily Summary

Daily Weather History Graph

Daily Weather History Graph

Search for Another Location

Airport:

Trip Planner

Search our weather history database for the weather conditions in past years. The results will help you decide how hot, cold, wet, or windy it might be!

Date:

Astronomy

Feb. 08, 2014 Rise Set
Actual Time 7:34 AM CST 6:04 PM CST
Civil Twilight 7:06 AM CST 6:32 PM CST
Nautical Twilight 6:35 AM CST 7:04 PM CST
Astronomical Twilight 6:04 AM CST 7:35 PM CST
Moon 1:01 PM CST (2/8) 2:47 AM CST (2/8)
Length of Visible Light 11h 25m
Length of Day
10h 30m
Waxing Gibbous, 69% of the Moon is Illuminated
Feb 8
Waxing Gibbous
Feb 14
Full
Feb 22
Last Quarter
Mar 1
New
Mar 8
First Quarter

Hourly Weather History & Observations

Time (CST) Temp. Windchill Dew Point Humidity Pressure Visibility Wind Dir Wind Speed Gust Speed Precip Events Conditions
12:02 AM 14.0 °F -1.4 °F 12.0 °F 92% 30.04 in 5.0 mi South 15.0 mph - N/A   Overcast
12:53 AM 15.1 °F -0.1 °F 12.9 °F 91% 30.15 in 4.0 mi South 15.0 mph - N/A   Overcast
1:00 AM 15.1 °F 0.5 °F 12.9 °F 91% 30.04 in 4.0 mi South 13.8 mph - N/A   Overcast
1:53 AM 15.1 °F 1.1 °F 12.9 °F 91% 30.12 in 3.0 mi South 12.7 mph - N/A   Overcast
2:01 AM 15.1 °F 1.8 °F 12.9 °F 91% 30.01 in 2.5 mi South 11.5 mph - N/A   Overcast
2:53 AM 16.0 °F 2.9 °F 14.0 °F 92% 30.10 in 2.5 mi South 11.5 mph - N/A   Overcast
3:53 AM 17.1 °F 4.3 °F 15.1 °F 92% 30.10 in 2.0 mi South 11.5 mph - N/A   Overcast
4:53 AM 17.1 °F 5.8 °F 16.0 °F 96% 30.11 in 2.0 mi South 9.2 mph - N/A   Overcast
5:06 AM 18.0 °F 7.7 °F 16.0 °F 92% 30.01 in 1.8 mi South 8.1 mph - N/A   Overcast
5:53 AM 18.0 °F 5.4 °F 16.0 °F 92% 30.10 in 1.5 mi South 11.5 mph - N/A   Overcast
6:42 AM 18.0 °F 4.8 °F 17.1 °F 96% 29.96 in 2.0 mi South 12.7 mph - N/A   Overcast
6:53 AM 19.0 °F 5.6 °F 17.1 °F 92% 30.05 in 2.5 mi South 13.8 mph - N/A   Overcast
7:11 AM 19.0 °F 6.1 °F 17.1 °F 92% 29.96 in 2.5 mi South 12.7 mph - N/A   Overcast
7:21 AM 19.0 °F 6.8 °F 17.1 °F 92% 29.97 in 2.5 mi South 11.5 mph - N/A   Overcast
7:44 AM 19.9 °F 7.3 °F 18.0 °F 92% 29.97 in 1.5 mi South 12.7 mph - N/A   Overcast
7:53 AM 19.9 °F 7.9 °F 18.0 °F 92% 30.08 in 1.5 mi South 11.5 mph - N/A   Overcast
8:15 AM 19.9 °F 10.1 °F 18.0 °F 92% 30.00 in 1.8 mi South 8.1 mph - N/A   Overcast
8:53 AM 21.0 °F 12.4 °F 19.0 °F 92% 30.10 in 1.8 mi South 6.9 mph - N/A   Overcast
9:41 AM 21.9 °F 12.5 °F 19.9 °F 92% 30.02 in 2.0 mi SSW 8.1 mph - N/A   Overcast
9:53 AM 23.0 °F 12.4 °F 19.9 °F 88% 30.10 in 2.5 mi SW 10.4 mph - N/A   Overcast
10:00 AM 21.9 °F 10.4 °F 19.9 °F 92% 30.01 in 3.0 mi SSW 11.5 mph - N/A   Overcast
10:10 AM 21.9 °F 9.8 °F 19.9 °F 92% 30.02 in 3.0 mi SSW 12.7 mph - N/A   Overcast
10:53 AM 23.0 °F 12.4 °F 21.0 °F 92% 30.11 in 3.0 mi SSW 10.4 mph - N/A   Overcast
11:53 AM 23.0 °F 13.9 °F 21.0 °F 92% 30.09 in 4.0 mi SSW 8.1 mph - N/A   Overcast
12:53 PM 24.1 °F 13.1 °F 21.0 °F 88% 30.07 in 4.0 mi SSW 11.5 mph - N/A   Overcast
1:53 PM 25.0 °F 16.3 °F 21.0 °F 85% 30.06 in 5.0 mi WSW 8.1 mph - N/A   Overcast
2:53 PM 25.0 °F 18.1 °F 21.9 °F 88% 30.02 in 5.0 mi South 5.8 mph - N/A   Overcast
3:53 PM 25.0 °F 18.1 °F 21.9 °F 88% 30.04 in 5.0 mi SW 5.8 mph - N/A   Overcast
4:53 PM 26.1 °F - 21.9 °F 84% 30.05 in 5.0 mi Calm Calm - N/A   Overcast
5:53 PM 26.1 °F - 21.9 °F 84% 30.07 in 5.0 mi Calm Calm - N/A   Overcast
6:53 PM 26.1 °F 21.9 °F 23.0 °F 88% 30.10 in 6.0 mi East 3.5 mph - N/A   Overcast
7:53 PM 25.0 °F 16.3 °F 21.9 °F 88% 30.11 in 6.0 mi East 8.1 mph - N/A   Overcast
8:53 PM 25.0 °F 17.1 °F 21.9 °F 88% 30.12 in 5.0 mi ENE 6.9 mph - N/A   Overcast
9:53 PM 24.1 °F 14.4 °F 21.0 °F 88% 30.14 in 5.0 mi ENE 9.2 mph - N/A   Overcast
10:53 PM 24.1 °F 17.0 °F 21.0 °F 88% 30.18 in 5.0 mi NE 5.8 mph - N/A   Overcast
11:49 PM 24.8 °F 15.3 °F 19.4 °F 80% 30.15 in 6.0 mi NNE 9.2 mph - N/A   Overcast
11:53 PM 24.1 °F 15.2 °F 19.9 °F 84% 30.24 in 6.0 mi NNE 8.1 mph - N/A   Overcast